BAW76MK LEMD-EGLL

Flight info

Callsign BAW76MK
Flight time 1h 41m
Altitude 34000
Route SIE N858 DGO N867 NENEM DCT DIDIG UP87 ROXOG
Aircraft L101/H-SDFGHIRWXY/S

Departure

Time 2026-04-30 19:08
Airport Adolfo Suárez Madrid–Barajas Airport (LEMD)

Arrival

Time 2026-04-30 20:50
Airport London Heathrow Airport (EGLL)
Time Latitude Longitude Altitude Speed Heading
2026-04-30 18:22 40.46189 -3.57002 1990 ft 0 kts 345°
2026-04-30 18:45 40.46188 -3.57001 1988 ft 1 kts 345°
2026-04-30 18:45 40.46165 -3.56993 1986 ft 3 kts 342°
2026-04-30 18:45 40.46145 -3.56985 1985 ft 3 kts 348°
2026-04-30 18:46 40.46121 -3.56982 1985 ft 4 kts 11°
2026-04-30 18:46 40.46097 -3.56993 1986 ft 4 kts 32°
2026-04-30 18:46 40.46086 -3.57003 1988 ft 1 kts 37°
2026-04-30 18:46 40.46085 -3.57004 1988 ft 0 kts 37°
2026-04-30 18:51 40.46087 -3.57002 1988 ft 2 kts 37°
2026-04-30 18:51 40.46102 -3.56987 1985 ft 4 kts 37°
2026-04-30 18:51 40.46127 -3.56957 1986 ft 6 kts 47°
2026-04-30 18:51 40.46158 -3.56911 1989 ft 8 kts 48°
2026-04-30 18:52 40.46198 -3.56853 1988 ft 9 kts 54°
2026-04-30 18:52 40.46215 -3.56766 1989 ft 11 kts 86°
2026-04-30 18:52 40.46218 -3.56658 1988 ft 12 kts 84°
2026-04-30 18:52 40.46270 -3.56598 1987 ft 11 kts
2026-04-30 18:53 40.46352 -3.56590 1985 ft 12 kts
2026-04-30 18:53 40.46443 -3.56583 1985 ft 14 kts
2026-04-30 18:53 40.46540 -3.56577 1987 ft 15 kts
2026-04-30 18:53 40.46653 -3.56569 1988 ft 16 kts
2026-04-30 18:54 40.46769 -3.56560 1986 ft 17 kts
2026-04-30 18:54 40.46894 -3.56553 1988 ft 18 kts
2026-04-30 18:54 40.47023 -3.56552 1988 ft 19 kts 349°
2026-04-30 18:54 40.47144 -3.56627 1987 ft 19 kts 323°
2026-04-30 18:55 40.47251 -3.56739 1990 ft 20 kts 321°
2026-04-30 18:55 40.47475 -3.56969 1990 ft 21 kts 321°
2026-04-30 18:55 40.47592 -3.57092 1990 ft 22 kts 323°
2026-04-30 18:56 40.47842 -3.57338 1988 ft 23 kts 322°
2026-04-30 18:56 40.47970 -3.57469 1989 ft 24 kts 321°
2026-04-30 18:56 40.48100 -3.57605 1987 ft 24 kts 322°
2026-04-30 18:57 40.48373 -3.57876 1990 ft 25 kts 323°
2026-04-30 18:57 40.48518 -3.58001 1988 ft 24 kts 326°
2026-04-30 18:57 40.48648 -3.58061 1985 ft 16 kts 359°
2026-04-30 18:58 40.48673 -3.58061 1985 ft 0 kts
2026-04-30 19:00 40.48678 -3.58061 1985 ft 2 kts
2026-04-30 19:01 40.48735 -3.58060 1987 ft 6 kts
2026-04-30 19:01 40.48784 -3.58060 1988 ft 8 kts
2026-04-30 19:02 40.48862 -3.57959 1985 ft 10 kts 83°
2026-04-30 19:02 40.48940 -3.57832 1985 ft 11 kts
2026-04-30 19:03 40.49118 -3.57832 1989 ft 14 kts 357°
2026-04-30 19:03 40.49246 -3.57706 1985 ft 11 kts 84°
2026-04-30 19:04 40.49250 -3.57653 1985 ft 0 kts 84°
2026-04-30 19:04 40.49251 -3.57639 1985 ft 3 kts 80°
2026-04-30 19:05 40.49274 -3.57554 1988 ft 7 kts 65°
2026-04-30 19:05 40.49354 -3.57465 1989 ft 0 kts
2026-04-30 19:07 40.49383 -3.57464 1988 ft 14 kts
2026-04-30 19:07 40.49718 -3.57462 1985 ft 88 kts 359°
2026-04-30 19:08 40.51807 -3.57486 2479 ft 185 kts 359°
2026-04-30 19:08 40.54535 -3.57656 4094 ft 204 kts 355°
2026-04-30 19:08 40.55974 -3.57780 4578 ft 216 kts 355°
2026-04-30 19:09 40.59308 -3.58344 4732 ft 265 kts 338°
2026-04-30 19:09 40.60884 -3.59699 4884 ft 276 kts 318°
2026-04-30 19:09 40.62142 -3.61575 5357 ft 274 kts 299°
2026-04-30 19:10 40.63601 -3.66232 6831 ft 281 kts 304°
2026-04-30 19:10 40.66843 -3.69034 8409 ft 290 kts 349°
2026-04-30 19:11 40.68863 -3.69073 9216 ft 295 kts 10°
2026-04-30 19:11 40.72788 -3.67214 10585 ft 311 kts 20°
2026-04-30 19:11 40.74891 -3.66311 10781 ft 333 kts 13°
2026-04-30 19:12 40.77270 -3.65673 10888 ft 355 kts
2026-04-30 19:12 40.79761 -3.65303 11010 ft 375 kts
2026-04-30 19:12 40.82420 -3.65065 11176 ft 390 kts
2026-04-30 19:13 40.87852 -3.64561 12599 ft 390 kts
2026-04-30 19:13 40.93363 -3.63729 13598 ft 403 kts
2026-04-30 19:13 40.96156 -3.63260 14171 ft 408 kts
2026-04-30 19:14 40.98031 -3.62956 14553 ft 410 kts
2026-04-30 19:14 41.00867 -3.62523 15124 ft 413 kts
2026-04-30 19:14 41.03740 -3.62113 15711 ft 416 kts
2026-04-30 19:14 41.06626 -3.61715 16319 ft 420 kts
2026-04-30 19:15 41.09543 -3.61311 16982 ft 421 kts
2026-04-30 19:15 41.15467 -3.60414 18228 ft 429 kts
2026-04-30 19:15 41.18346 -3.59532 18787 ft 433 kts 17°
2026-04-30 19:16 41.21192 -3.58182 19328 ft 437 kts 22°
2026-04-30 19:16 41.23989 -3.56536 19903 ft 441 kts 25°
2026-04-30 19:16 41.29552 -3.52935 21047 ft 449 kts 25°
2026-04-30 19:17 41.32383 -3.51153 21664 ft 452 kts 24°
2026-04-30 19:17 41.38204 -3.47765 22884 ft 461 kts 22°
2026-04-30 19:17 41.41190 -3.46133 23491 ft 465 kts 21°
2026-04-30 19:18 41.46221 -3.43449 24359 ft 471 kts 21°
2026-04-30 19:18 41.50320 -3.41262 25035 ft 476 kts 21°
2026-04-30 19:18 41.53403 -3.39597 25462 ft 482 kts 21°
2026-04-30 19:19 41.56548 -3.37878 25593 ft 494 kts 21°
2026-04-30 19:19 41.59761 -3.36106 25712 ft 506 kts 22°
2026-04-30 19:19 41.66317 -3.32462 26783 ft 507 kts 22°
2026-04-30 19:20 41.69568 -3.30649 27455 ft 506 kts 22°
2026-04-30 19:20 41.72814 -3.28841 28128 ft 505 kts 22°
2026-04-30 19:20 41.79276 -3.25248 29537 ft 502 kts 21°
2026-04-30 19:21 41.82494 -3.23457 30229 ft 500 kts 21°
2026-04-30 19:21 41.88916 -3.19878 31383 ft 499 kts 21°
2026-04-30 19:22 41.95319 -3.16301 32577 ft 498 kts 21°
2026-04-30 19:22 42.04909 -3.10929 33982 ft 501 kts 22°
2026-04-30 19:23 42.14565 -3.05502 34091 ft 501 kts 22°
2026-04-30 19:24 42.24193 -3.00073 34103 ft 499 kts 21°
2026-04-30 19:25 42.40211 -2.91004 34109 ft 499 kts 21°
2026-04-30 19:26 42.46731 -2.87857 34082 ft 495 kts
2026-04-30 19:26 42.53487 -2.87180 34105 ft 489 kts 354°
2026-04-30 19:27 42.63626 -2.88639 34107 ft 489 kts 351°
2026-04-30 19:28 42.73826 -2.89489 34108 ft 490 kts 355°
2026-04-30 19:29 42.87452 -2.90258 34122 ft 490 kts 355°
2026-04-30 19:30 43.01082 -2.90981 34135 ft 490 kts 355°
2026-04-30 19:31 43.14679 -2.91701 34146 ft 488 kts 355°
2026-04-30 19:31 43.24859 -2.92239 34139 ft 487 kts 354°
2026-04-30 19:32 43.31567 -2.93120 34135 ft 481 kts 345°
2026-04-30 19:32 43.38095 -2.95172 34140 ft 481 kts 344°
2026-04-30 19:33 43.44609 -2.97059 34141 ft 481 kts 345°
2026-04-30 19:33 43.51131 -2.99019 34140 ft 479 kts 343°
2026-04-30 19:34 43.57638 -3.01051 34135 ft 479 kts 343°
2026-04-30 19:35 43.67390 -3.04095 34138 ft 478 kts 344°
2026-04-30 19:35 43.73891 -3.06005 34139 ft 478 kts 345°
2026-04-30 19:36 43.80425 -3.07876 34141 ft 480 kts 345°
2026-04-30 19:36 43.90225 -3.10708 34135 ft 479 kts 345°
2026-04-30 19:37 43.96752 -3.12595 34140 ft 479 kts 345°
2026-04-30 19:37 44.03302 -3.13937 34072 ft 485 kts
2026-04-30 19:38 44.06658 -3.13097 34109 ft 485 kts 13°
2026-04-30 19:38 44.09899 -3.11755 34168 ft 488 kts 12°
2026-04-30 19:38 44.16462 -3.09553 34147 ft 489 kts 10°
2026-04-30 19:39 44.23050 -3.07134 34140 ft 490 kts 13°
2026-04-30 19:39 44.29560 -3.04350 34141 ft 489 kts 14°
2026-04-30 19:40 44.36046 -3.01549 34136 ft 487 kts 14°
2026-04-30 19:40 44.42503 -2.98740 34139 ft 485 kts 14°
2026-04-30 19:41 44.48938 -2.95916 34138 ft 485 kts 14°
2026-04-30 19:41 44.55374 -2.93085 34139 ft 484 kts 14°
2026-04-30 19:42 44.61811 -2.90245 34141 ft 484 kts 14°
2026-04-30 19:42 44.68216 -2.87411 34134 ft 482 kts 14°
2026-04-30 19:43 44.74611 -2.84576 34132 ft 482 kts 14°
2026-04-30 19:44 44.84215 -2.80305 34137 ft 482 kts 14°
2026-04-30 19:44 44.90616 -2.77450 34136 ft 482 kts 14°
2026-04-30 19:45 44.97012 -2.74591 34142 ft 482 kts 14°
2026-04-30 19:45 45.03360 -2.71745 34139 ft 481 kts 14°
2026-04-30 19:46 45.09741 -2.68879 34135 ft 481 kts 14°
2026-04-30 19:46 45.16116 -2.66007 34143 ft 479 kts 14°
2026-04-30 19:47 45.22437 -2.63155 34135 ft 477 kts 14°
2026-04-30 19:47 45.28752 -2.60298 34132 ft 476 kts 14°
2026-04-30 19:48 45.35057 -2.57440 34133 ft 476 kts 14°
2026-04-30 19:48 45.41362 -2.54576 34138 ft 475 kts 14°
2026-04-30 19:49 45.47652 -2.51709 34131 ft 475 kts 14°
2026-04-30 19:49 45.57092 -2.47397 34139 ft 475 kts 14°
2026-04-30 19:50 45.63379 -2.44516 34133 ft 474 kts 14°
2026-04-30 19:50 45.69663 -2.41629 34132 ft 474 kts 14°
2026-04-30 19:51 45.75939 -2.38739 34137 ft 474 kts 15°
2026-04-30 19:51 45.82219 -2.35843 34141 ft 474 kts 15°
2026-04-30 19:52 45.88492 -2.32939 34135 ft 473 kts 15°
2026-04-30 19:52 45.94747 -2.30039 34135 ft 472 kts 15°
2026-04-30 19:53 46.00999 -2.27134 34126 ft 472 kts 15°
2026-04-30 19:53 46.07271 -2.24394 34128 ft 470 kts
2026-04-30 19:54 46.13717 -2.22930 34137 ft 468 kts
2026-04-30 19:54 46.20156 -2.21443 34125 ft 470 kts
2026-04-30 19:55 46.26554 -2.19827 34126 ft 470 kts
2026-04-30 19:55 46.33008 -2.18250 34132 ft 470 kts
2026-04-30 19:56 46.39467 -2.16670 34127 ft 471 kts
2026-04-30 19:56 46.45939 -2.15076 34119 ft 472 kts
2026-04-30 19:57 46.52414 -2.13480 34117 ft 472 kts
2026-04-30 19:57 46.58892 -2.11881 34134 ft 473 kts
2026-04-30 19:58 46.65399 -2.10269 34117 ft 475 kts
2026-04-30 19:58 46.71917 -2.08649 34127 ft 475 kts
2026-04-30 19:59 46.78435 -2.07027 34118 ft 475 kts
2026-04-30 20:00 46.88205 -2.04588 34135 ft 475 kts
2026-04-30 20:00 46.94724 -2.02959 34132 ft 476 kts
2026-04-30 20:01 47.04542 -2.00503 34128 ft 478 kts
2026-04-30 20:01 47.11098 -1.98858 34112 ft 478 kts
2026-04-30 20:02 47.19835 -1.96679 34107 ft 479 kts
2026-04-30 20:03 47.29717 -1.94216 34113 ft 481 kts
2026-04-30 20:03 47.36368 -1.93421 34113 ft 479 kts 356°
2026-04-30 20:04 47.43041 -1.94116 34109 ft 482 kts 357°
2026-04-30 20:05 47.53088 -1.94888 34120 ft 482 kts 356°
2026-04-30 20:05 47.63115 -1.95317 34067 ft 481 kts 12°
2026-04-30 20:06 47.69486 -1.92409 34141 ft 481 kts 18°
2026-04-30 20:06 47.75935 -1.89667 34109 ft 482 kts 16°
2026-04-30 20:07 47.82343 -1.86723 34118 ft 482 kts 19°
2026-04-30 20:08 47.91886 -1.81900 34120 ft 483 kts 19°
2026-04-30 20:08 47.98243 -1.78670 34105 ft 483 kts 19°
2026-04-30 20:09 48.04635 -1.75572 34085 ft 484 kts 11°
2026-04-30 20:09 48.07970 -1.75072 34085 ft 481 kts
2026-04-30 20:09 48.14690 -1.75064 34122 ft 484 kts
2026-04-30 20:10 48.24793 -1.74507 34120 ft 485 kts
2026-04-30 20:11 48.34928 -1.74574 34111 ft 486 kts
2026-04-30 20:11 48.41689 -1.74629 34110 ft 486 kts 360°
2026-04-30 20:12 48.51797 -1.74743 34098 ft 487 kts 360°
2026-04-30 20:13 48.58622 -1.74825 34107 ft 488 kts 360°
2026-04-30 20:13 48.65417 -1.74907 34086 ft 488 kts 360°
2026-04-30 20:14 48.72203 -1.74990 34106 ft 489 kts 359°
2026-04-30 20:14 48.78965 -1.75074 34104 ft 489 kts 359°
2026-04-30 20:15 48.85814 -1.75158 34099 ft 489 kts 359°
2026-04-30 20:15 48.92622 -1.75167 34104 ft 488 kts
2026-04-30 20:16 48.99338 -1.74899 34094 ft 485 kts
2026-04-30 20:16 49.06073 -1.74636 34095 ft 484 kts
2026-04-30 20:17 49.12802 -1.74391 34092 ft 483 kts
2026-04-30 20:17 49.19525 -1.74135 34094 ft 483 kts
2026-04-30 20:18 49.26244 -1.73878 34097 ft 483 kts
2026-04-30 20:18 49.32969 -1.73620 34096 ft 483 kts
2026-04-30 20:19 49.39697 -1.73361 34098 ft 484 kts
2026-04-30 20:19 49.46432 -1.73101 34104 ft 484 kts
2026-04-30 20:20 49.53172 -1.72840 34104 ft 484 kts
2026-04-30 20:20 49.59916 -1.72551 34109 ft 486 kts
2026-04-30 20:21 49.66618 -1.72005 34111 ft 487 kts
2026-04-30 20:21 49.73383 -1.71415 34108 ft 487 kts
2026-04-30 20:22 49.80153 -1.70857 34106 ft 489 kts
2026-04-30 20:22 49.86953 -1.70283 34105 ft 489 kts
2026-04-30 20:23 49.93758 -1.69705 34092 ft 489 kts
2026-04-30 20:23 50.00466 -1.68497 34088 ft 490 kts 15°
2026-04-30 20:24 50.07008 -1.65398 34107 ft 493 kts 17°
2026-04-30 20:24 50.13595 -1.62438 34100 ft 492 kts 17°
2026-04-30 20:24 50.16838 -1.60963 33714 ft 481 kts 17°
2026-04-30 20:25 50.23126 -1.57958 32284 ft 464 kts 18°
2026-04-30 20:25 50.26181 -1.56471 31613 ft 456 kts 18°
2026-04-30 20:26 50.32118 -1.53574 30331 ft 441 kts 18°
2026-04-30 20:26 50.37871 -1.50757 28897 ft 431 kts 19°
2026-04-30 20:26 50.40724 -1.49358 28187 ft 428 kts 19°
2026-04-30 20:27 50.46365 -1.46588 26841 ft 421 kts 19°
2026-04-30 20:27 50.51911 -1.43879 25537 ft 415 kts 20°
2026-04-30 20:28 50.57230 -1.40641 24288 ft 406 kts 31°
2026-04-30 20:28 50.62026 -1.36139 22966 ft 398 kts 37°
2026-04-30 20:29 50.66724 -1.31661 21591 ft 392 kts 33°
2026-04-30 20:30 50.73831 -1.25667 19655 ft 380 kts 32°
2026-04-30 20:30 50.80425 -1.19600 18264 ft 352 kts 38°
2026-04-30 20:31 50.86280 -1.13227 16789 ft 334 kts 38°
2026-04-30 20:32 50.92028 -1.07283 15380 ft 330 kts 37°
2026-04-30 20:32 50.95865 -1.03333 14364 ft 327 kts 37°
2026-04-30 20:33 50.97768 -1.01357 13783 ft 326 kts 37°
2026-04-30 20:33 51.01423 -0.97357 13066 ft 311 kts 45°
2026-04-30 20:33 51.02954 -0.94944 12833 ft 310 kts 53°
2026-04-30 20:34 51.05638 -0.89677 12326 ft 308 kts 55°
2026-04-30 20:34 51.08380 -0.84417 11829 ft 306 kts 52°
2026-04-30 20:35 51.09787 -0.81892 11576 ft 305 kts 51°
2026-04-30 20:35 51.11209 -0.79391 11328 ft 304 kts 51°
2026-04-30 20:35 51.14013 -0.74452 10851 ft 302 kts 51°
2026-04-30 20:36 51.15374 -0.72025 10617 ft 301 kts 51°
2026-04-30 20:36 51.16780 -0.69503 10375 ft 300 kts 51°
2026-04-30 20:36 51.19534 -0.64545 9877 ft 298 kts 51°
2026-04-30 20:37 51.20922 -0.62047 9611 ft 294 kts 51°
2026-04-30 20:37 51.22420 -0.59996 9296 ft 288 kts 30°
2026-04-30 20:37 51.24300 -0.59034 8999 ft 283 kts
2026-04-30 20:37 51.26216 -0.59389 8738 ft 275 kts 339°
2026-04-30 20:38 51.27799 -0.60968 8491 ft 265 kts 313°
2026-04-30 20:38 51.28924 -0.63224 8292 ft 257 kts 301°
2026-04-30 20:38 51.29857 -0.65675 8107 ft 260 kts 297°
2026-04-30 20:39 51.31593 -0.70763 7665 ft 260 kts 296°
2026-04-30 20:39 51.32438 -0.73306 7414 ft 258 kts 295°
2026-04-30 20:39 51.33272 -0.75827 7268 ft 255 kts 295°
2026-04-30 20:40 51.34926 -0.80843 7202 ft 256 kts 295°
2026-04-30 20:40 51.35752 -0.83361 7174 ft 253 kts 295°
2026-04-30 20:40 51.36549 -0.85774 7139 ft 239 kts 295°
2026-04-30 20:41 51.38071 -0.90361 6746 ft 223 kts 295°
2026-04-30 20:41 51.38797 -0.92537 6458 ft 222 kts 295°
2026-04-30 20:41 51.39563 -0.94696 6189 ft 226 kts 306°
2026-04-30 20:41 51.40818 -0.96177 5832 ft 225 kts 339°
2026-04-30 20:42 51.42336 -0.96640 5596 ft 223 kts 355°
2026-04-30 20:42 51.43904 -0.96760 5424 ft 227 kts 359°
2026-04-30 20:42 51.46976 -0.96815 5233 ft 213 kts
2026-04-30 20:43 51.48416 -0.96587 4954 ft 210 kts 22°
2026-04-30 20:43 51.49539 -0.95195 4611 ft 199 kts 61°
2026-04-30 20:43 51.49867 -0.93158 4338 ft 185 kts 100°
2026-04-30 20:44 51.48473 -0.90167 4175 ft 174 kts 132°
2026-04-30 20:44 51.47876 -0.88465 4198 ft 177 kts 116°
2026-04-30 20:44 51.47609 -0.84441 4227 ft 186 kts 94°
2026-04-30 20:45 51.47649 -0.80312 3882 ft 182 kts 95°
2026-04-30 20:45 51.47654 -0.78294 3674 ft 180 kts 96°
2026-04-30 20:45 51.47659 -0.76303 3470 ft 177 kts 96°
2026-04-30 20:46 51.47673 -0.70473 2796 ft 172 kts 96°
2026-04-30 20:46 51.47679 -0.68574 2554 ft 168 kts 96°
2026-04-30 20:47 51.47690 -0.64867 2133 ft 168 kts 96°
2026-04-30 20:47 51.47698 -0.62989 1895 ft 167 kts 96°
2026-04-30 20:48 51.47714 -0.59431 1511 ft 150 kts 95°
2026-04-30 20:48 51.47715 -0.58337 1336 ft 147 kts 95°
2026-04-30 20:48 51.47723 -0.56721 1119 ft 143 kts 93°
2026-04-30 20:48 51.47730 -0.55121 943 ft 147 kts 91°
2026-04-30 20:49 51.47737 -0.53434 762 ft 156 kts 90°
2026-04-30 20:49 51.47735 -0.51643 515 ft 165 kts 90°
2026-04-30 20:49 51.47742 -0.49834 252 ft 154 kts 89°
2026-04-30 20:50 51.47755 -0.46995 96 ft 88 kts 89°
2026-04-30 20:50 51.47756 -0.46281 95 ft 27 kts 96°
2026-04-30 20:50 51.47660 -0.46094 95 ft 12 kts 146°
2026-04-30 20:50 51.47648 -0.46082 94 ft 0 kts 147°
2026-04-30 20:51 51.47635 -0.46071 94 ft 4 kts 156°
2026-04-30 20:51 51.47591 -0.46066 94 ft 0 kts 184°
2026-04-30 20:51 51.47590 -0.46067 94 ft 0 kts 188°
2026-04-30 20:52 51.47577 -0.46083 93 ft 4 kts 232°
2026-04-30 20:52 51.47579 -0.46145 95 ft 8 kts 280°
2026-04-30 20:52 51.47593 -0.46466 94 ft 20 kts 269°
2026-04-30 20:53 51.47591 -0.46697 91 ft 22 kts 269°
2026-04-30 20:53 51.47585 -0.46916 94 ft 19 kts 268°
2026-04-30 20:53 51.47581 -0.47140 94 ft 22 kts 270°
2026-04-30 20:54 51.47581 -0.47675 94 ft 23 kts 270°
2026-04-30 20:54 51.47542 -0.47875 91 ft 17 kts 185°
2026-04-30 20:54 51.47419 -0.47871 94 ft 19 kts 179°
2026-04-30 20:55 51.47311 -0.47904 94 ft 9 kts 243°
2026-04-30 20:55 51.47308 -0.47992 95 ft 6 kts 270°
2026-04-30 20:55 51.47308 -0.48025 95 ft 3 kts 270°
2026-04-30 20:56 51.47308 -0.48044 95 ft 0 kts 270°